Home   Weather   Poole   Past weeks

Flag for United Kingdom Past Weather in Poole, England, United Kingdom — Yesterday and Last 2 Weeks

Now
61 °F

Passing clouds.


Feels Like: 61 °F
Forecast: 56 / 67 °F
Wind: 10 mph from Southwest

Location: Bournemouth Airport

Current Time: Sep 26, 2016 at 9:57:45 AM

Latest Report: Sep 26, 2016 at 9:20 AM


Visibility: N/A

Pressure: 30.15 "Hg

Humidity: 77%

Dew Point: 54 °F

Location of PooleLocation

Past Weather in Poole — Graph

°F

Poole Temperature Yesterday

Maximum temperature yesterday: 66 °F (at 12:20 AM)
Minimum temperature yesterday: 52 °F (at 10:20 PM)
Average temperature yesterday: 60 °F

High & Low Weather Summary for the Past Weeks

 TemperatureHumidityPressure
High81 °F (Sep 15, 12:50 PM)100% (Sep 11, 8:20 AM)30.27 "Hg (Sep 11, 8:20 AM)
Low41 °F (Sep 23, 5:50 AM)51% (Sep 15, 11:20 AM)29.65 "Hg (Sep 14, 5:50 AM)
Average63 °F79%30.01 "Hg
* Reported Sep 11 8:20 AM — Sep 26 8:20 AM, Poole, Weather by CustomWeather, © 2016

Note: Actual official high and low records may vary slightly from our data, if they occured in-between our weather recording intervals... More about our weather records

Advertising

Poole Weather History for the Previous 24 Hours

Scroll right to see more
 ConditionsComfort  
Time TempWeatherWind HumidityBarometerVisibility
8:20 AM
Mon, Sep 26
59 °FPassing clouds.7 mph82%30.15 "HgN/A
7:50 AM55 °FPassing clouds.5 mph100%30.15 "HgN/A
7:20 AM54 °FPassing clouds.2 mph100%30.15 "HgN/A
6:50 AM54 °FPassing clouds.2 mph94%30.12 "HgN/A
6:20 AM52 °FClear.2 mph100%30.12 "HgN/A
5:50 AM52 °FPassing clouds.2 mph100%30.15 "HgN/A
11:50 PM
Sun, Sep 25
52 °FClear.2 mph82%30.15 "Hg10 mi
11:20 PM54 °FClear.3 mph82%30.15 "Hg10 mi
10:20 PM52 °FClear.3 mph82%30.15 "Hg10 mi
9:50 PM55 °FClear.6 mph77%30.15 "Hg10 mi
9:20 PM55 °FClear.7 mph82%30.12 "Hg10 mi
8:50 PM54 °FPassing clouds.5 mph82%30.12 "HgN/A
8:20 PM55 °FPassing clouds.7 mph82%30.12 "HgN/A
7:50 PM55 °FPassing clouds.8 mph77%30.12 "HgN/A
7:20 PM57 °FPassing clouds.9 mph72%30.12 "HgN/A
6:50 PM59 °FPassing clouds.10 mph72%30.09 "HgN/A
6:20 PM59 °FPassing clouds.10 mph72%30.09 "HgN/A
5:50 PM61 °FPassing clouds.13 mph68%30.09 "HgN/A
5:20 PM61 °FPassing clouds.13 mph63%30.07 "HgN/A
4:50 PM63 °FPassing clouds.14 mph59%30.07 "HgN/A
4:20 PM63 °FPassing clouds.14 mph59%30.07 "HgN/A
3:50 PM63 °FPassing clouds.18 mph56%30.07 "HgN/A
3:20 PM64 °FScattered clouds.17 mph60%30.07 "HgN/A
2:50 PM66 °FScattered clouds.17 mph56%30.04 "HgN/A
2:20 PM64 °FScattered clouds.18 mph60%30.04 "HgN/A
1:50 PM63 °FPassing clouds.18 mph59%30.01 "HgN/A
1:20 PM64 °FPassing clouds.17 mph60%30.01 "HgN/A
12:50 PM64 °FScattered clouds.16 mph60%30.01 "HgN/A
12:20 PM64 °FScattered clouds.15 mph60%30.01 "HgN/A
11:50 AM64 °FPassing clouds.15 mph68%30.01 "HgN/A
11:20 AM61 °FPassing clouds.14 mph72%29.98 "HgN/A
10:50 AM61 °FPassing clouds.16 mph68%29.98 "HgN/A
10:20 AM63 °FPassing clouds.14 mph73%29.95 "HgN/A
9:50 AM61 °FPassing clouds.13 mph77%29.95 "HgN/A
9:20 AM61 °FPassing clouds.12 mph77%29.92 "HgN/A
Weather by CustomWeather, © 2016

See weather overviewHow to use our weather pages